Tracking 19817 objects as of 19-Aug-2019
HD Live streaming from Space Station
objects crossing your sky now

FENGYUN 1C DEB

Track FENGYUN 1C DEB now!
10-day predictions


NORAD ID: 30816
Int'l Code: 1999-025AVA
Perigee: 836.0 km
Apogee: 927.4 km
Inclination: 99.1 °
Period: 102.4 minutes
Semi major axis: 7252 km
RCS: 0.037 m2 (small)
Launch date: May 10, 1999
Source: People's Republic of China (PRC)
Launch site: Taiyaun Space Center, China (TSC)

Note: This is SATELLITE DEBRIS
aabbcc
Your satellite tracking list
Your tracking list is empty




NASA's NSSDC Master Catalog

Two Line Element Set (TLE):
1 30816U 99025AVA 19230.71589833 +.00000530 +00000-0 +34723-3 0  9992
2 30816 099.0783 272.0337 0062979 053.2119 068.0390 14.05579671639014
Source of the keplerian elements: AFSPC